Вернуться в каталог

GORIZONT 8

АктивенСвязьGEO
NORAD 14532·PAYLOAD·🇷🇺 Russia

Запущен Nov 30, 1983 с Baikonur Cosmodrome

Loading…

TLE

СвежийSource: Space-Track

Эпоха: Sep 14, 2026, 01:33 UTC

1 14532U 83118A   26257.06491003 -.00000132  00000-0  00000-0 0  9998
2 14532   9.4322 314.0942 0025851 188.4763 176.8686  0.98270335121382

Отслеживайте GORIZONT 8 в реальном времени с AllMySat

Download on the App Store